ROMMA est une association bénévole à but non lucratif. Votre soutien est indispensable : ADHERER à ROMMA ou FAIRE un DON

Col du Lautaret - (05, Hautes-Alpes)

Massif des Ecrins (2075 m)   Longitude: 06° 24' 06" E   Latitude: 45° 02' 08" N Station partenaire n°21
 

Détail journalier du     <<     >>

Température Precipitation Humidité Vent Dir Rafale Dir. rafale Ensol.
Heure (°C) (mm) (%) (km/h) (km/h) (min)
01:00 3.10.29311SO29SO0
02:00 3.30917SO15SO0
03:00 3.10938SO15OSO0
04:00 3.20927SO15OSO0
05:00 3.20936SO11SO0
06:00 2.90935OSO15SSO0
07:00 3.60948SO16SO0
08:00 5.20906SO11OSO30
09:00 5.709111SSO23SO60
10:00 6.109613SSO24SO40
11:00 6.908711SSO21S20
12:00 8.10808SSO19OSO30
13:00 9.90676SO18O30
14:00 9.30646OSO18OSO10
15:00 11.906510OSO26OSO40
16:00 11.106315OSO31OSO60
17:00 11.606714OSO27SO60
18:00 11.606714SO29O60
19:00 11.006812OSO26OSO60
20:00 9.60759OSO29NNO60
21:00 7.70787OSO21O60
22:00 6.90756N19NO0
23:00 6.20839NO27NO0
minuit 4.80907SO15SSO0

Graphique du 19-06-2020

 

Serveur OMMA